Regional Weather Roundup
Issued by NWS New Orleans/Baton Rouge, LA

Home | Current Version | Previous Version | Text Only | Print | Product List | Glossary On
Versions: 1 2 3 4 5 6 7 8 9 10 11 12 13 14 15 16 17 18 19 20 21 22 23 24 25 26 27 28 29 30 31 32 33 34 35 36 37 38 39 40 41 42 43 44 45 46 47 48 49 50
811
ASUS44 KLIX 231301
RWRLIX
NEW ORLEANS REGIONAL WEATHER ROUNDUP
NATIONAL WEATHER SERVICE NEW ORLEANS LA
800 AM CDT THU OCT 23 2014

NOTE: "FAIR" INDICATES FEW OR NO CLOUDS BELOW 12,000 FEET WITH NO
      SIGNIFICANT WEATHER AND/OR OBSTRUCTIONS TO VISIBILITY.
      SKY/WX - SKY CONDITION AND SIGNIFICANT WEATHER.
      TMP - AIR TEMPERATURE.     DP    - DEWPOINT TEMPERATURE.
      RH  - RELATIVE HUMIDITY.   PRES  - PRESSURE.
      HI  - HEAT INDEX.          WCI   - WIND CHILL INDEX.

*  THESE STATIONS ARE NOT NWS OR FAA STATIONS AND ARE NOT UNDER
   NWS QUALITY CONTROL.

LAZ038-040-048-061>063-065>067-069-231400-
SOUTHEAST LOUISIANA

CITY           SKY/WX    TMP DP  RH WIND       PRES   REMARKS
N.O. AUDUBON     N/A     62  52  70 MISG        N/A
N.O. INTL ARPT PTCLDY    63  50  62 E7        30.08R
N.O. LAKEFRONT SUNNY     62  50  64 E17       30.09R
N.O. DOWNTOWN*   N/A     61  46  59 NE6       30.09R
SLIDELL        SUNNY     48  45  89 N5        30.10R
BATON ROUGE    CLEAR     52  46  80 NE6       30.11R
BOOTHVILLE     SUNNY     70  58  65 NE7       30.06R
BELLE CHASSE   MOSUNNY   59  51  75 NE6       30.08R
BOGALUSA*        N/A     49  44  85 CALM      30.13R
NEW ROADS*       N/A     55  46  72 NE6       30.11S
GONZALES*        N/A     52  49  90 N3        30.10R
HAMMOND*       NOT AVBL
HOUMA*         CLEAR     54  50  87 N5        30.08R
PORT FOURCHON* SUNNY     68  61  77 NE10      30.09R

$$

MSZ070-080>082-231400-
SOUTHERN MISSISSIPPI

CITY           SKY/WX    TMP DP  RH WIND       PRES   REMARKS
MCCOMB         CLEAR     50  44  80 N6        30.13R
GULFPORT       SUNNY     52  44  74 NE6       30.10R
BILOXI         SUNNY     52  45  77 NE9       30.10R
PASCAGOULA     SUNNY     49  45  86 N6        30.10R
STENNIS ARPT*  SUNNY     52  43  71 VRB5      30.11R

$$

COASTAL OBSERVATIONS
LAKE AND NEARSHORE STATIONS

STATION/POSITION TIME  TEMP    WIND        PRES    WAVE
                       AIR SEA DIR/SP/G            HT/PER
                 (UTC) (F)     (DEG/KT/KT) (MB)    (FT/S)
PASCAGOULA       1200   53      30/ 10/ 12 1018.2
WAVELAND YACHT   1200   55      50/ 12/ 14 1018.1
GRAND ISLE       1200   68 74   60/  7/ 10 1018.0
SOUTHWEST PASS   1200   72 81              1017.5
NEW CANAL        1200   63 70   70/ 14/ 17 1018.6
SHELL BEACH      1200   65 66   50/ 16/ 17 1017.9

OFFSHORE STATIONS

STATION/POSITION TIME  TEMP    WIND        PRES    WAVE
                       AIR SEA DIR/SP/G            HT/PER
                 (UTC) (F)     (DEG/KT/KT) (MB)    (FT/S)
64 S DAUPHIN ISL 1154   71 79   60/ 14/ 17 1017.8    5/ 6

$$




USA.gov is the U.S. government's official web portal to all federal, state and local government web resources and services.